Weather History for Oxford, NC

Change the Weather History Date:

Friday, January 6, 2012

  Actual Average (KTDF) Record (KTDF)
Temperature  
Mean Temperature 48 °F -  
Max Temperature 64 °F 46 °F 71 °F (2005)
Min Temperature 32 °F 25 °F 8 °F (1981)
Degree Days  
Heating Degree Days 17    
Moisture  
Dew Point 26 °F    
Average Humidity 50    
Maximum Humidity 78    
Minimum Humidity 21    
Precipitation  
Precipitation 0.00 in - - ()
Sea Level Pressure  
Sea Level Pressure 30.01 in    
Wind  
Wind Speed 8 mph (SSW)    
Max Wind Speed 14 mph    
Max Gust Speed 17 mph    
Visibility 10 miles    
Events      
Averages and records for this station are not official NWS values.
T = Trace of Precipitation, MM = Missing Value Source: NWS Daily Summary

Daily Weather History Graph

Daily Weather History Graph

Search for Another Location

Airport:

Trip Planner

Search our weather history database for the weather conditions in past years. The results will help you decide how hot, cold, wet, or windy it might be!

Date:

Astronomy

Jan. 06, 2012 Rise Set
Actual Time 7:26 AM EST 5:13 PM EST
Civil Twilight 6:57 AM EST 5:42 PM EST
Nautical Twilight 6:25 AM EST 6:14 PM EST
Astronomical Twilight 5:54 AM EST 6:45 PM EST
Moon 3:03 PM EST (1/6) 5:03 AM EST (1/6)
Length of Visible Light 10h 44m
Length of Day
9h 47m
Waxing Gibbous, 93% of the Moon is Illuminated
Jan 6
Waxing Gibbous
Jan 9
Full
Jan 16
Last Quarter
Jan 23
New
Jan 30
First Quarter

Hourly Weather History & Observations

Time (EST) Temp. Windchill Dew Point Humidity Pressure Visibility Wind Dir Wind Speed Gust Speed Precip Events Conditions
12:15 AM 36.1 °F 31.4 °F 25.2 °F 64% 30.04 in 10.0 mi SSW 5.8 mph - N/A   Clear
12:35 AM 36.9 °F 30.7 °F 25.7 °F 64% 30.04 in 10.0 mi SSW 8.1 mph - N/A   Clear
12:55 AM 37.6 °F 31.6 °F 25.7 °F 62% 30.04 in 10.0 mi SSW 8.1 mph - N/A   Clear
1:15 AM 38.1 °F 31.7 °F 25.7 °F 61% 30.04 in 10.0 mi SW 9.2 mph - N/A   Clear
1:35 AM 38.1 °F 32.3 °F 25.7 °F 61% 30.04 in 10.0 mi SW 8.1 mph - N/A   Clear
1:55 AM 36.9 °F 31.4 °F 25.5 °F 64% 30.04 in 10.0 mi SSW 6.9 mph - N/A   Clear
2:15 AM 36.0 °F 29.6 °F 25.5 °F 66% 30.04 in 10.0 mi SW 8.1 mph - N/A   Clear
2:35 AM 35.8 °F 29.4 °F 25.5 °F 66% 30.04 in 10.0 mi SSW 8.1 mph - N/A   Clear
2:55 AM 35.8 °F 30.1 °F 25.3 °F 66% 30.04 in 10.0 mi SW 6.9 mph - N/A   Clear
3:15 AM 35.2 °F 28.8 °F 25.5 °F 68% 30.04 in 10.0 mi SW 8.1 mph - N/A   Clear
3:35 AM 35.1 °F 27.9 °F 25.7 °F 69% 30.04 in 10.0 mi SW 9.2 mph - N/A   Clear
3:55 AM 35.6 °F 29.2 °F 25.7 °F 67% 30.03 in 10.0 mi SW 8.1 mph - N/A   Clear
4:15 AM 35.4 °F 29.7 °F 25.5 °F 67% 30.03 in 10.0 mi SSW 6.9 mph - N/A   Clear
4:35 AM 34.2 °F 28.2 °F 25.5 °F 71% 30.04 in 10.0 mi SW 6.9 mph - N/A   Clear
4:55 AM 33.6 °F 27.5 °F 25.7 °F 73% 30.04 in 10.0 mi SSW 6.9 mph - N/A   Clear
5:15 AM 33.4 °F 29.1 °F 25.9 °F 74% 30.04 in 10.0 mi SW 4.6 mph - N/A   Clear
5:35 AM 33.8 °F 28.6 °F 25.5 °F 72% 30.04 in 10.0 mi SSW 5.8 mph - N/A   Clear
5:55 AM 34.2 °F 29.0 °F 25.7 °F 71% 30.04 in 10.0 mi SW 5.8 mph - N/A   Clear
6:15 AM 32.9 °F 27.5 °F 25.7 °F 75% 30.05 in 10.0 mi SSW 5.8 mph - N/A   Clear
6:35 AM 32.4 °F 25.3 °F 25.7 °F 76% 30.04 in 10.0 mi SW 8.1 mph - N/A   Clear
6:55 AM 32.5 °F 27.1 °F 25.7 °F 76% 30.05 in 10.0 mi SSW 5.8 mph - N/A   Clear
7:15 AM 33.1 °F 27.7 °F 25.5 °F 74% 30.04 in 10.0 mi SSW 5.8 mph - N/A   Clear
7:35 AM 32.7 °F 25.7 °F 25.3 °F 74% 30.06 in 10.0 mi SSW 8.1 mph - N/A   Clear
7:55 AM 32.2 °F 24.4 °F 25.9 °F 78% 30.06 in 10.0 mi SSW 9.2 mph - N/A   Clear
8:15 AM 35.2 °F 29.5 °F 27.0 °F 72% 30.07 in 10.0 mi SSW 6.9 mph - N/A   Clear
8:35 AM 37.6 °F 32.3 °F 27.9 °F 68% 30.07 in 10.0 mi SSW 6.9 mph - N/A   Clear
8:55 AM 40.3 °F 35.5 °F 27.9 °F 61% 30.07 in 10.0 mi South 6.9 mph - N/A   Clear
9:15 AM 42.3 °F 38.6 °F 27.3 °F 56% 30.06 in 10.0 mi SSW 5.8 mph - N/A   Clear
9:35 AM 44.8 °F 40.4 °F 27.7 °F 51% 30.07 in 10.0 mi SW 8.1 mph - N/A   Clear
9:55 AM 46.6 °F - 27.5 °F 47% 30.07 in 10.0 mi SSW 6.9 mph - N/A   Clear
10:15 AM 48.4 °F - 27.5 °F 44% 30.07 in 10.0 mi SW 6.9 mph - N/A   Clear
10:35 AM 50.5 °F - 27.9 °F 42% 30.07 in 10.0 mi SW 8.1 mph - N/A   Clear
10:55 AM 52.9 °F - 27.3 °F 37% 30.06 in 10.0 mi SW 6.9 mph - N/A   Clear
11:15 AM 54.9 °F - 26.4 °F 33% 30.05 in 10.0 mi SSW 6.9 mph - N/A   Clear
11:35 AM 56.8 °F - 26.6 °F 31% 30.03 in 10.0 mi SW 6.9 mph - N/A   Clear
11:55 AM 58.3 °F - 26.8 °F 30% 30.03 in 10.0 mi SW 9.2 mph - N/A   Clear
12:15 PM 59.5 °F - 26.4 °F 28% 30.02 in 10.0 mi SW 8.1 mph - N/A   Clear
12:35 PM 60.4 °F - 25.9 °F 27% 30.01 in 10.0 mi SW 6.9 mph - N/A   Clear
12:55 PM 61.5 °F - 25.3 °F 25% 29.99 in 10.0 mi SW 5.8 mph - N/A   Clear
1:15 PM 63.1 °F - 26.1 °F 25% 29.98 in 10.0 mi South 6.9 mph - N/A   Clear
1:35 PM 63.9 °F - 25.2 °F 23% 29.97 in 10.0 mi SW 10.4 mph - N/A   Clear
2:15 PM 64.2 °F - 24.6 °F 22% 29.96 in 10.0 mi South 9.2 mph - N/A   Clear
2:35 PM 64.4 °F - 25.0 °F 22% 29.95 in 10.0 mi South 6.9 mph - N/A   Clear
2:55 PM 64.4 °F - 24.8 °F 22% 29.95 in 10.0 mi SSW 8.1 mph - N/A   Clear
3:15 PM 64.4 °F - 23.0 °F 21% 29.95 in 10.0 mi SSW 9.2 mph - N/A   Clear
3:35 PM 62.6 °F - 24.8 °F 24% 29.95 in 10.0 mi SSW 13.8 mph - N/A   Clear
3:55 PM 62.6 °F - 23.0 °F 22% 29.95 in 10.0 mi SSW 11.5 mph 17.3 mph N/A   Clear
4:15 PM 62.6 °F - 24.8 °F 24% 29.96 in 10.0 mi SSW 11.5 mph - N/A   Clear
4:35 PM 60.8 °F - 26.6 °F 27% 29.96 in 10.0 mi SSW 9.2 mph - N/A   Clear
4:55 PM 59.0 °F - 26.6 °F 29% 29.97 in 10.0 mi SSW 9.2 mph - N/A   Clear
5:15 PM 57.2 °F - 26.6 °F 31% 29.96 in 10.0 mi SSW 5.8 mph - N/A   Clear
5:35 PM 53.6 °F - 26.6 °F 35% 29.96 in 10.0 mi South 5.8 mph - N/A   Clear
5:55 PM 53.6 °F - 26.6 °F 35% 29.96 in 10.0 mi South 8.1 mph - N/A   Clear
6:15 PM 53.6 °F - 28.4 °F 38% 29.96 in 10.0 mi SSW 8.1 mph - N/A   Clear
6:55 PM 51.8 °F - 28.4 °F 41% 29.97 in 10.0 mi SSW 6.9 mph - N/A   Clear
7:15 PM 50.0 °F - 28.4 °F 43% 29.97 in 10.0 mi SSW 8.1 mph - N/A   Clear
7:35 PM 51.8 °F - 28.4 °F 41% 29.97 in 10.0 mi SSW 8.1 mph - N/A   Clear
7:55 PM 50.0 °F - 30.2 °F 47% 29.97 in 10.0 mi SSW 8.1 mph - N/A   Clear
8:15 PM 48.2 °F - 30.2 °F 50% 29.97 in 10.0 mi SSW 9.2 mph - N/A   Clear
8:35 PM 46.4 °F 42.4 °F 30.2 °F 53% 29.97 in 10.0 mi SSW 8.1 mph - N/A   Clear
8:55 PM 46.4 °F 42.9 °F 30.2 °F 53% 29.97 in 10.0 mi SSW 6.9 mph - N/A   Clear
9:15 PM 44.6 °F 40.2 °F 30.2 °F 57% 29.97 in 10.0 mi SSW 8.1 mph - N/A   Clear
9:35 PM 44.6 °F 40.2 °F 30.2 °F 57% 29.96 in 10.0 mi SSW 8.1 mph - N/A   Clear
9:55 PM 44.6 °F 40.2 °F 30.2 °F 57% 29.96 in 10.0 mi SSW 8.1 mph - N/A   Clear
10:15 PM 44.6 °F 39.7 °F 30.2 °F 57% 29.96 in 10.0 mi SW 9.2 mph - N/A   Clear
10:35 PM 44.6 °F 39.7 °F 30.2 °F 57% 29.95 in 10.0 mi SSW 9.2 mph - N/A   Clear
10:55 PM 42.8 °F 38.0 °F 30.2 °F 61% 29.95 in 10.0 mi SSW 8.1 mph - N/A   Clear
11:15 PM 42.8 °F 38.0 °F 30.2 °F 61% 29.94 in 10.0 mi SSW 8.1 mph - N/A   Clear
11:35 PM 41.0 °F 35.8 °F 30.2 °F 65% 29.94 in 10.0 mi SSW 8.1 mph - N/A   Clear
11:55 PM 41.0 °F 35.8 °F 30.2 °F 65% 29.94 in 10.0 mi SSW 8.1 mph - N/A   Clear